GFSCGP_250_rhum_102.txt.gz
RH
100 82 69 76 79 100 88 73 61 48 41 40 42 40 43 49 64 57 69 73 79 80 69 60 48 41 66 100 92 60 45 92 92 63 34 30 26 31 36 32 27 21 81 87
98 90 83 100 88 84 86 74 74 70 65 60 39 34 32 41 56 67 59 62 80 70 54 41 44 50 100 100 99 52 48 100 88 48 35 31 27 31 39 36 22 20 40 99
100 96 90 83 76 84 69 83 93 80 88 81 47 36 34 38 47 66 69 84 74 54 47 54 48 55 100 98 88 63 50 100 82 44 36 32 28 33 38 36 23 22 27 100
95 93 98 98 89 90 89 94 81 82 67 53 58 46 48 50 53 85 100 82 71 63 56 47 56 67 100 100 95 67 59 98 70 42 39 29 34 38 35 33 23 24 27 94
100 87 98 99 100 100 100 90 84 100 94 67 47 47 49 55 69 80 80 78 74 73 68 49 70 100 100 100 82 55 67 94 66 44 44 29 51 39 33 33 23 27 28 87
100 100 97 99 100 100 100 100 100 94 92 59 76 69 58 58 76 91 61 66 74 81 93 75 90 100 100 100 66 52 70 79 65 48 45 30 53 41 36 37 25 38 32 70
100 100 100 100 100 100 100 95 91 82 66 74 91 68 66 67 85 53 81 100 87 88 88 90 93 82 81 94 65 48 78 93 65 52 40 34 43 32 32 40 31 51 42 34
100 100 100 100 100 100 100 97 84 90 98 99 100 78 81 80 71 66 69 96 100 91 86 82 77 58 54 71 58 49 100 100 68 59 50 32 34 27 28 42 34 60 42 34
92 100 100 100 100 100 100 100 100 100 100 98 75 61 86 95 81 66 51 58 66 63 72 66 44 48 47 42 56 55 100 97 66 61 62 44 34 30 27 36 35 63 48 40
100 100 100 100 100 100 100 100 100 100 97 83 62 71 75 91 71 65 61 60 64 63 59 43 43 41 28 40 46 52 100 81 60 72 79 56 39 36 27 31 45 55 63 50
100 100 100 95 98 100 100 96 90 84 84 81 77 79 83 84 83 71 75 71 65 55 37 37 38 33 42 40 49 85 95 60 82 94 79 75 65 40 29 31 44 45 79 90
100 100 100 100 98 100 98 99 96 86 92 88 82 86 90 77 75 74 69 59 43 37 32 33 34 44 49 66 82 100 86 82 99 100 49 97 66 39 34 30 38 53 31 70
100 100 100 100 90 100 90 90 98 97 96 74 81 82 72 62 70 54 52 40 39 35 37 45 48 82 85 100 100 94 66 100 100 100 76 100 56 64 49 36 32 42 69 35
52 56 71 88 98 93 100 100 99 78 52 76 64 55 56 79 42 38 37 40 64 98 68 75 100 99 100 100 97 98 100 100 100 100 73 100 71 62 63 46 44 35 46 66
35 37 37 44 61 71 56 46 48 54 47 57 53 49 54 43 30 38 44 96 100 100 100 100 100 100 98 100 100 100 100 98 100 100 100 99 63 90 56 54 69 64 55 65
21 20 25 32 34 35 35 38 46 36 36 33 33 34 30 26 32 60 58 100 100 100 100 100 100 100 94 93 100 100 100 100 100 100 100 97 78 90 100 98 91 81 52 46
14 18 24 26 29 30 34 36 33 31 32 38 35 28 27 27 32 64 91 95 100 100 100 100 100 100 100 100 86 100 100 92 100 100 100 100 100 100 100 100 100 99 96 93
16 19 20 22 24 28 33 28 29 31 34 29 28 31 31 35 47 48 100 100 100 100 100 100 100 100 100 100 100 100 98 99 100 100 100 100 100 100 100 100 81 100 100 100
17 17 18 20 18 23 24 23 24 25 28 31 33 37 36 41 63 92 100 100 100 100 91 100 100 100 100 100 100 100 100 100 100 100 100 100 100 100 71 80 85 66 50 51
17 16 18 20 24 23 20 19 22 25 35 34 35 40 43 50 70 81 100 100 100 100 100 92 100 100 100 100 100 100 100 100 100 100 100 100 89 73 66 54 79 100 94 93
16 17 22 21 24 24 20 18 20 26 35 41 44 43 44 62 88 84 100 98 100 100 100 100 91 100 100 100 100 100 100 100 100 100 100 100 100 100 100 100 100 100 100 100
18 20 24 25 24 22 19 17 20 26 36 46 49 45 47 66 99 93 100 100 100 100 100 100 100 100 82 95 98 99 100 100 100 100 100 100 100 100 100 79 61 54 72 100
21 20 22 24 24 20 21 20 22 31 40 45 54 47 50 56 98 95 100 100 100 100 99 100 100 100 100 100 100 88 87 98 100 100 80 86 80 71 80 91 95 98 100 100
18 17 18 20 23 21 18 21 25 30 38 40 50 55 52 76 78 100 100 100 100 100 100 100 95 100 100 100 100 100 100 90 53 61 65 55 48 54 48 46 55 75 80 79
17 21 20 20 21 22 20 23 27 28 35 46 59 66 62 72 96 99 100 100 98 100 100 100 100 100 73 60 77 99 100 88 83 100 98 83 83 80 69 71 70 79 87 89
15 16 18 18 24 24 23 24 28 30 38 50 62 78 94 84 83 94 98 100 100 100 100 100 100 100 100 100 100 100 100 100 100 91 84 74 74 73 78 83 95 99 100 100

GFSCGP_250_rhum_105.txt.gz
RH
64 71 61 49 48 78 100 96 99 93 64 70 71 67 61 62 62 59 48 50 60 70 72 61 44 47 55 76 65 58 56 69 93 35 38 66 86 52 34 29 24 31 28 26
53 55 61 62 54 60 89 94 93 99 99 73 66 62 64 64 59 51 46 46 46 45 69 67 58 66 58 60 61 55 58 66 93 44 44 82 81 42 34 29 24 33 36 25
52 54 50 54 56 62 63 88 99 100 100 85 63 55 65 73 73 58 51 44 44 47 46 42 68 69 65 55 50 45 70 72 79 57 51 96 68 41 36 31 27 36 37 28
70 82 76 84 89 95 100 100 100 100 92 77 70 63 65 65 65 61 68 46 61 67 53 45 64 81 81 60 57 66 72 82 74 65 57 98 53 41 36 41 36 34 38 28
100 100 100 91 100 100 99 100 100 99 81 83 83 72 84 89 71 81 72 67 66 52 53 48 53 76 90 64 70 80 81 95 68 66 65 96 48 47 41 46 39 37 39 26
100 100 100 100 100 100 100 100 100 100 100 100 96 81 65 54 89 100 98 56 47 60 60 50 52 70 80 79 89 83 85 99 70 64 83 86 46 51 41 42 35 31 39 29
100 100 100 100 100 100 100 100 100 96 88 99 97 82 96 98 100 100 91 57 56 62 54 49 54 66 70 76 82 82 94 69 57 70 95 79 49 52 34 30 31 28 37 31
97 94 100 100 100 100 100 100 97 93 93 96 100 91 95 94 99 91 74 84 76 80 51 51 55 72 100 99 73 80 73 65 53 60 98 75 55 58 34 30 31 32 37 39
100 100 100 100 100 100 100 100 100 93 83 84 94 100 100 99 94 100 89 100 99 70 55 64 72 61 73 98 81 71 61 59 54 55 100 73 65 67 45 35 29 29 39 50
100 100 99 100 100 100 100 100 100 100 100 100 100 100 100 100 94 92 87 83 64 57 63 75 74 64 62 59 52 50 60 52 56 66 100 76 72 72 44 44 35 27 43 53
100 99 99 97 90 97 96 100 100 100 100 100 100 100 94 95 100 100 91 70 57 55 59 80 87 77 67 49 49 44 47 45 60 98 94 90 72 82 53 55 33 27 37 46
100 100 99 99 94 94 85 93 95 87 90 74 72 87 95 100 100 91 66 72 64 66 62 98 78 48 41 35 32 40 42 51 64 100 90 99 80 88 75 52 40 30 30 77
86 98 100 91 92 93 92 82 87 86 81 89 99 100 100 90 79 73 74 68 50 65 87 98 54 32 31 29 30 32 42 48 67 98 100 100 91 84 88 75 51 39 29 40
48 72 91 97 96 96 100 97 91 97 98 92 87 81 72 76 74 78 80 71 53 84 87 58 35 34 30 28 34 42 45 67 87 100 100 100 100 83 90 100 79 53 37 28
35 39 43 54 50 67 94 99 93 94 90 90 100 90 81 75 78 79 58 55 83 96 69 54 46 54 40 37 44 52 70 92 100 100 100 100 100 100 100 100 79 52 69 55
28 28 33 34 45 49 74 84 84 92 100 100 89 86 84 64 49 48 57 65 73 56 47 100 95 100 88 50 79 100 100 100 100 100 100 100 100 100 100 100 100 92 89 96
18 26 32 35 47 65 81 92 98 92 76 58 54 48 37 43 41 38 35 44 43 46 48 96 93 100 100 100 100 100 100 100 100 100 100 100 66 100 100 100 100 100 100 100
13 15 20 29 39 50 52 45 40 40 37 35 35 36 32 33 33 34 34 34 44 69 100 100 100 100 100 100 100 100 100 100 100 100 100 100 86 100 100 100 100 100 81 85
13 16 17 18 19 23 29 27 25 27 30 31 31 29 29 29 29 30 35 48 90 97 100 99 100 100 100 87 100 100 100 100 100 100 100 98 100 100 100 100 94 59 48 51
14 16 17 17 17 19 22 24 26 27 25 26 28 27 27 27 30 35 57 100 100 100 100 100 100 100 100 100 100 100 100 100 100 100 100 100 100 100 100 81 40 45 47 43
19 19 18 17 19 19 20 21 20 21 21 24 26 25 30 33 36 65 96 100 100 100 100 100 99 100 100 100 94 88 100 100 100 100 100 100 100 100 100 100 64 81 86 75
20 18 18 19 20 19 21 24 23 22 19 22 22 27 35 39 42 94 100 100 100 100 99 98 100 100 100 95 100 100 96 89 100 100 100 100 100 100 100 100 100 100 100 100
18 17 19 20 18 17 19 19 19 20 20 19 20 30 36 42 49 86 100 100 100 100 100 94 100 100 100 100 82 100 100 100 100 100 100 100 100 100 100 100 100 100 100 100
17 17 18 21 21 21 21 20 19 20 22 22 24 32 39 44 52 76 100 100 100 100 100 100 100 100 86 100 100 100 100 100 100 100 100 100 100 100 100 100 100 100 100 100
17 17 18 20 21 22 21 23 22 23 24 26 28 31 39 45 50 60 78 100 100 100 100 100 100 100 100 100 100 98 92 92 95 100 97 100 100 100 100 100 100 100 100 97
18 16 15 21 22 22 21 23 26 22 25 27 31 34 39 44 48 57 88 100 100 100 100 100 100 100 100 100 100 100 100 86 56 64 99 100 100 100 100 97 83 83 80 88

GFSCGP_250_rhum_108.txt.gz
RH
35 40 45 55 72 100 100 79 69 82 61 71 98 99 99 88 100 92 94 87 71 64 52 48 59 52 43 50 56 82 80 74 61 52 65 60 57 43 34 50 62 42 33 25
34 29 37 48 69 98 100 95 78 79 65 64 73 84 81 72 92 87 70 64 75 70 62 65 50 49 46 44 57 94 100 83 64 58 70 65 64 43 36 52 64 40 30 26
30 45 33 41 61 97 97 100 95 82 93 83 64 63 66 78 80 70 76 76 70 69 68 69 64 58 45 47 46 49 80 96 92 70 77 67 60 43 42 65 58 37 30 26
22 34 44 38 56 78 93 100 98 89 90 98 75 69 58 74 89 92 85 86 84 67 68 79 73 61 55 52 46 52 51 100 100 85 80 72 64 45 42 72 51 36 32 33
41 50 74 52 50 61 72 77 78 85 88 89 79 89 87 98 100 100 97 85 70 68 62 66 71 65 66 62 57 52 46 98 97 87 80 79 75 53 46 70 44 38 37 40
17 43 80 90 71 64 69 58 74 74 79 77 100 99 100 100 96 100 96 95 80 61 71 75 73 100 73 59 61 47 50 89 99 90 87 75 78 54 58 69 46 35 42 37
15 47 87 100 93 92 89 79 91 73 81 76 99 100 100 100 100 100 100 86 67 61 60 73 100 92 50 71 67 54 50 77 97 90 83 80 72 59 71 66 46 28 30 27
18 41 90 100 100 100 98 100 100 88 90 100 100 100 100 100 100 99 100 100 79 68 98 100 80 54 57 90 76 59 70 82 83 81 95 73 66 61 69 65 42 30 29 28
22 25 88 100 100 100 100 96 100 100 100 100 99 100 100 100 100 100 100 93 81 91 82 58 60 71 89 100 73 56 55 82 100 91 86 68 74 64 63 67 51 38 34 29
27 29 80 100 100 100 100 100 99 100 100 100 100 100 100 100 100 100 100 100 97 99 100 85 56 67 87 90 68 56 59 60 72 98 81 60 78 66 66 72 58 48 42 37
28 28 50 97 100 100 100 100 96 100 100 100 100 100 100 100 100 100 97 99 97 100 65 82 80 98 72 63 70 67 72 56 51 54 53 52 78 66 68 70 68 49 45 32
29 33 37 95 100 100 100 100 99 100 100 100 100 100 100 100 86 71 77 76 85 97 91 78 91 88 67 60 70 74 58 56 46 45 47 56 67 73 75 69 82 58 45 37
20 28 35 75 100 100 100 100 97 96 97 100 100 99 100 99 87 83 77 93 100 99 87 76 79 70 80 74 65 58 53 51 48 40 43 58 64 89 84 71 99 64 52 49
24 30 31 36 58 95 100 92 98 92 95 99 96 94 100 100 100 100 97 83 75 77 70 72 60 74 81 66 53 40 34 36 42 49 51 53 92 81 100 75 100 81 68 74
23 30 32 35 44 85 100 100 100 100 100 99 98 99 79 80 78 72 64 66 68 73 59 64 83 89 60 42 32 29 29 31 32 37 42 71 99 83 96 89 98 90 89 76
19 28 32 33 37 57 100 100 100 99 98 96 98 92 91 81 83 76 76 68 70 72 72 71 73 59 54 57 38 33 35 36 40 46 72 100 93 100 100 100 100 100 100 77
20 31 33 33 35 46 72 100 100 99 98 99 97 91 91 77 78 74 71 69 76 80 50 55 71 100 97 100 55 46 49 57 59 87 100 100 100 100 100 100 100 100 100 99
18 21 32 38 39 43 61 88 98 100 94 83 73 68 81 86 82 73 63 71 42 39 49 98 98 100 100 99 92 56 70 85 94 100 100 100 100 100 100 100 100 100 100 100
16 18 19 26 31 34 39 42 43 45 47 46 46 50 62 69 74 57 41 37 34 38 46 83 98 100 100 100 100 74 90 97 100 100 100 100 100 100 100 100 100 100 100 100
14 17 17 20 24 30 34 39 41 44 40 42 51 46 46 39 36 32 34 34 35 37 73 97 100 100 100 100 100 100 100 100 100 100 100 100 100 100 100 100 99 100 100 100
14 16 18 20 22 24 28 34 28 34 30 36 32 27 27 29 30 28 32 38 39 39 100 100 98 100 100 100 100 100 100 100 100 100 97 100 100 100 100 100 96 84 69 65
13 16 21 23 20 20 23 22 22 23 21 19 21 24 26 27 27 28 34 36 41 68 90 84 96 100 100 100 100 100 100 100 100 100 95 100 100 100 100 100 100 87 57 50
17 18 20 19 18 21 22 22 22 21 20 19 21 21 22 23 29 29 35 60 62 100 100 100 100 100 100 100 100 97 91 100 100 100 100 100 100 100 90 100 100 98 99 99
18 19 20 20 21 22 22 22 21 19 18 19 19 19 18 22 25 28 38 87 76 100 95 100 100 100 100 100 100 100 100 86 100 100 100 100 100 100 100 100 100 100 100 99
16 16 17 18 20 23 23 24 28 26 21 19 18 18 18 23 25 34 40 80 94 100 100 100 100 100 98 94 100 100 76 100 96 100 100 100 100 100 100 100 100 100 100 100
17 16 17 17 18 20 22 23 22 20 18 22 25 23 20 22 28 35 48 90 97 100 99 98 100 100 100 98 74 95 100 100 100 100 100 100 91 75 100 100 100 100 100 100

GFSCGP_250_rhum_111.txt.gz
RH
37 38 26 37 51 60 62 53 58 72 90 95 88 99 94 76 81 92 96 75 88 80 88 88 93 93 80 72 61 56 56 52 48 51 51 60 71 81 92 65 54 51 38 42
16 17 35 49 39 44 46 47 48 58 82 88 93 94 100 96 79 78 79 95 94 91 89 95 92 78 76 62 58 61 61 58 53 50 54 54 61 82 100 82 64 56 39 40
7 15 35 30 34 33 34 38 52 59 81 80 76 83 100 100 100 84 72 80 88 99 99 97 86 73 56 60 61 60 71 72 64 60 55 49 48 70 99 83 75 54 41 44
7 12 14 20 25 30 27 36 46 54 70 79 79 60 100 100 100 100 93 84 89 100 94 88 80 75 64 61 65 61 75 86 81 76 72 56 42 68 100 90 78 56 39 48
6 9 10 14 21 33 37 34 41 49 60 68 68 70 86 100 100 100 98 98 90 85 84 70 68 66 70 74 68 68 80 99 100 93 64 55 47 71 100 97 88 55 39 55
6 9 10 15 20 30 38 40 38 47 53 53 65 74 86 100 100 100 100 100 100 100 94 96 90 87 71 82 74 64 74 100 100 69 64 45 45 82 100 100 99 55 48 61
7 8 11 13 15 19 43 70 56 58 68 66 70 88 100 100 95 100 88 100 96 99 100 100 96 80 87 80 68 66 94 100 100 62 60 47 55 87 98 99 93 59 51 64
7 9 14 16 20 40 97 100 100 94 97 79 81 99 100 100 100 92 100 97 100 94 76 91 96 91 87 62 60 92 100 100 73 86 89 55 59 76 90 88 84 56 56 61
8 10 14 20 28 46 89 100 100 93 90 100 100 98 99 100 100 100 100 100 100 100 98 86 100 97 60 69 100 100 100 79 74 78 76 58 63 77 74 68 85 54 63 58
9 12 16 23 26 44 71 100 100 100 94 96 97 98 100 85 87 86 93 100 100 100 100 100 83 100 69 69 92 73 59 62 95 100 87 56 60 71 79 80 68 58 70 62
12 12 21 25 31 45 78 100 100 100 94 94 100 98 88 99 100 96 97 100 100 100 100 98 100 100 100 100 64 87 89 75 98 99 75 59 57 60 65 64 65 60 73 70
12 14 23 30 34 53 84 100 100 100 100 100 100 100 92 94 100 100 100 100 100 100 100 100 100 99 100 90 87 71 88 76 84 74 65 62 65 52 50 56 57 62 82 75
14 17 24 35 37 43 76 100 100 100 100 100 100 100 100 100 100 100 100 100 100 100 100 99 100 89 70 80 76 83 75 80 94 74 83 78 69 48 48 53 55 62 96 75
14 15 18 28 36 39 57 100 100 100 100 100 97 98 100 96 90 100 100 94 100 100 100 100 76 74 99 99 88 77 81 81 75 69 60 52 52 54 57 62 56 63 100 80
15 17 15 19 30 34 39 62 100 100 100 100 100 89 73 84 96 95 94 80 75 78 85 78 71 65 57 58 65 70 71 77 69 53 46 42 44 58 70 86 68 86 99 93
19 23 19 20 26 39 33 41 99 100 100 100 100 91 77 99 97 94 92 91 89 84 82 86 86 72 58 63 62 72 72 53 41 36 36 36 44 62 87 98 91 95 98 100
18 22 20 20 24 32 38 46 69 100 100 100 100 98 96 96 99 98 86 85 80 70 66 62 57 58 56 68 69 64 54 42 33 32 31 32 44 68 100 97 93 91 92 85
17 20 22 22 22 29 36 41 51 94 100 100 100 100 93 100 86 81 80 77 71 68 66 65 63 60 57 52 62 89 62 50 40 41 42 39 50 88 99 100 93 90 95 100
19 20 20 21 24 29 38 42 47 52 68 92 100 100 92 88 86 82 81 82 79 75 74 74 63 52 81 70 87 67 72 62 67 60 82 94 100 100 100 98 100 100 100 100
20 19 19 19 20 27 36 44 48 50 56 61 85 91 92 90 86 88 95 86 56 45 56 44 50 94 89 74 100 89 83 71 95 83 100 100 100 100 100 100 100 100 100 100
15 20 22 21 22 22 26 33 40 49 64 54 66 85 90 88 87 77 57 35 43 41 29 66 100 100 100 75 72 94 100 96 100 100 100 100 100 100 100 100 100 100 100 100
15 19 24 24 24 22 23 26 31 34 37 33 41 44 46 46 39 37 38 33 30 30 30 100 97 100 100 100 95 100 100 100 100 100 100 100 100 100 100 99 90 95 99 100
15 17 18 23 23 25 23 23 23 19 27 29 32 32 30 31 33 28 26 26 29 29 35 100 98 100 100 100 100 100 100 100 100 100 100 100 100 100 100 100 100 100 100 100
15 18 19 21 21 24 25 24 21 19 22 22 20 19 20 19 20 24 26 28 28 28 70 100 89 100 99 100 100 100 100 100 88 100 99 88 98 100 100 100 100 100 100 99
19 19 17 20 19 19 20 23 23 22 22 21 20 18 16 16 19 23 25 26 28 31 60 100 91 100 99 100 100 100 100 100 100 100 71 100 88 100 100 100 100 100 98 87
20 19 17 18 20 20 21 22 23 22 24 24 23 21 19 18 19 22 23 29 32 33 67 100 92 93 100 100 100 100 100 100 100 100 100 96 82 89 100 100 93 100 100 100

GFSCGP_250_rhum_114.txt.gz
RH
15 17 15 22 28 32 39 45 46 44 48 50 50 62 100 97 73 87 100 98 94 100 93 100 100 100 100 100 100 100 100 96 78 68 59 57 58 60 60 50 51 43 45 67
8 8 10 14 18 25 32 33 32 37 43 38 44 52 85 97 85 84 100 100 100 92 96 98 100 100 96 100 100 99 96 100 87 67 66 66 68 73 70 64 56 52 39 62
6 6 8 10 12 13 20 24 29 34 48 40 46 56 63 89 90 78 100 100 100 100 99 97 87 84 90 100 94 84 100 90 84 78 73 73 76 82 90 77 65 55 42 62
4 4 5 7 8 10 14 20 33 44 35 36 37 40 53 65 76 81 88 100 100 100 100 100 88 78 85 100 95 99 99 100 90 78 84 80 81 94 98 86 80 59 47 61
3 3 4 5 7 9 14 27 32 29 23 36 40 42 51 59 53 60 83 100 100 100 100 100 100 95 85 88 89 87 100 94 76 68 95 85 88 99 99 93 76 54 44 76
3 3 4 5 7 9 12 16 18 23 29 26 46 42 51 50 51 60 69 98 100 100 100 100 100 100 100 98 78 79 81 88 90 89 96 92 88 100 100 99 71 50 43 83
2 3 4 5 8 10 9 12 17 24 27 44 46 44 49 52 57 61 72 100 100 88 95 100 100 100 100 83 73 76 100 100 94 90 84 70 99 100 100 100 64 48 65 96
4 4 4 6 8 10 14 18 20 29 46 80 65 47 64 56 63 69 78 96 96 97 78 100 100 100 100 98 92 90 99 100 97 82 70 75 100 100 100 82 59 45 62 94
4 5 5 5 8 9 16 18 26 39 62 80 73 75 71 68 66 64 68 82 100 100 83 99 99 100 100 100 98 78 73 95 100 76 61 98 100 100 99 75 54 46 63 77
5 5 7 12 12 13 16 22 34 47 88 100 100 92 78 88 71 72 71 66 97 98 88 94 97 90 100 100 85 64 77 99 78 64 100 100 100 91 72 68 54 61 68 88
5 6 8 12 21 16 21 26 39 76 100 100 100 96 91 88 93 97 86 77 80 88 99 100 100 100 96 91 100 93 97 99 100 79 72 97 77 64 66 59 52 54 75 81
7 8 10 16 14 21 25 37 83 100 100 100 100 100 93 88 94 100 85 79 92 97 100 100 100 100 100 100 100 100 100 100 100 100 100 100 93 78 64 61 63 57 60 70
9 11 18 23 22 23 32 47 77 100 100 100 100 100 95 96 100 87 100 100 96 92 98 68 78 98 100 100 100 100 100 100 99 99 75 91 100 71 74 75 77 66 67 60
13 15 18 28 42 35 38 42 68 94 100 100 100 100 100 85 89 98 94 100 96 100 97 98 76 97 100 100 100 100 96 99 100 100 92 84 80 64 68 68 78 60 64 61
16 19 19 24 20 25 33 42 68 96 100 100 100 100 100 89 98 100 92 84 100 100 100 100 100 100 100 100 100 100 100 83 83 82 71 80 82 66 59 58 64 72 63 62
22 18 22 20 17 18 23 40 58 98 100 100 100 100 100 100 100 100 71 76 100 100 100 100 100 100 100 97 93 100 100 93 78 62 57 56 52 51 51 57 63 63 73 76
20 23 24 29 29 26 28 39 36 34 74 87 100 100 100 100 98 100 73 76 81 78 72 91 86 81 70 68 80 69 59 62 66 67 65 66 56 45 51 49 50 73 93 80
19 23 24 31 27 34 37 40 49 60 88 100 100 100 100 100 100 94 86 78 77 77 78 78 75 67 62 56 55 61 60 56 65 70 67 46 38 45 43 41 50 96 86 89
18 23 27 26 27 28 36 33 42 51 65 83 100 100 100 100 100 100 100 86 81 75 77 81 79 70 62 57 58 62 60 66 57 48 48 48 40 34 34 35 54 70 87 92
19 20 24 27 25 24 30 31 34 45 59 68 74 93 100 100 100 100 97 92 83 82 74 65 61 66 66 66 54 46 46 49 92 82 65 52 45 39 38 46 76 92 92 100
22 18 22 27 31 27 24 25 30 36 40 45 42 50 70 93 87 89 91 92 86 76 76 66 60 63 76 53 47 37 65 97 90 76 88 100 100 100 88 99 98 100 100 100
18 19 22 24 26 25 24 24 27 29 34 40 39 40 44 54 72 84 87 83 82 78 68 64 69 66 58 55 43 81 92 78 92 100 100 100 100 100 100 100 100 100 100 100
22 19 19 21 20 18 20 22 28 28 29 33 33 34 42 45 47 49 48 52 62 68 76 83 79 50 51 65 98 99 100 100 100 100 100 100 100 100 100 100 100 100 100 100
24 24 20 19 19 19 25 27 28 27 22 23 35 31 35 42 41 38 39 41 44 46 46 44 41 41 94 85 100 84 100 98 100 100 100 100 100 100 100 100 100 100 100 97
23 24 22 20 18 18 20 22 23 22 21 19 26 26 25 24 26 28 30 35 35 37 35 28 31 97 99 98 99 100 100 100 100 100 100 100 100 100 100 100 100 100 97 100
24 22 22 19 18 18 17 20 22 22 24 24 24 24 22 22 22 21 21 24 23 22 24 28 69 100 100 98 98 100 100 100 100 100 100 100 94 100 100 100 97 100 100 100

GFSCGP_250_rhum_117.txt.gz
RH
19 19 16 18 17 17 18 20 21 30 38 31 29 22 35 38 58 62 70 62 49 47 57 80 58 62 82 100 100 100 100 100 100 100 100 96 95 76 75 69 71 63 59 64
12 10 11 10 10 10 10 11 13 19 28 23 27 26 30 31 30 47 59 62 55 47 59 76 78 64 68 86 97 100 100 100 100 100 100 83 73 82 83 68 71 70 69 70
10 8 8 7 6 6 8 9 10 13 18 23 30 30 33 39 38 48 52 55 55 63 82 90 82 82 74 66 87 95 100 100 100 100 100 100 98 100 100 90 77 82 83 94
6 6 5 5 5 5 5 7 9 12 14 22 24 22 27 38 38 38 48 76 67 80 100 100 86 70 100 62 84 100 100 100 100 100 100 100 100 100 100 84 73 84 90 92
4 4 3 3 3 3 5 7 10 14 16 13 16 22 26 30 30 43 60 74 100 100 100 100 98 92 100 98 75 88 96 97 96 92 92 100 100 100 99 79 82 86 99 100
3 3 2 2 2 3 4 5 7 10 10 10 16 18 25 33 41 50 59 68 93 99 100 100 96 80 80 91 71 90 98 97 100 100 100 99 92 100 100 96 80 89 100 100
3 3 2 2 2 3 4 4 5 6 7 11 15 15 33 48 50 46 59 74 87 89 91 100 96 76 77 100 100 100 100 100 100 98 100 100 96 100 100 95 80 92 100 100
3 3 3 3 3 3 4 6 6 7 10 20 28 25 50 49 52 50 55 66 58 67 80 74 81 89 99 81 100 100 100 96 100 99 68 79 75 89 96 100 82 81 100 100
4 3 4 3 3 4 6 8 12 15 21 22 26 34 42 47 49 50 53 59 65 65 62 65 70 76 89 74 100 100 100 100 100 100 93 93 76 90 96 89 73 82 100 100
4 4 4 5 5 8 8 7 10 15 20 22 30 40 52 50 52 63 66 69 62 50 58 62 60 68 100 100 90 91 100 100 100 100 100 86 70 68 91 65 70 100 100 100
5 6 6 6 5 10 12 13 14 16 19 22 42 62 52 54 70 80 64 64 71 60 54 58 75 81 97 100 98 84 92 100 100 100 99 98 54 84 78 94 74 100 100 85
7 7 7 9 9 12 14 17 23 22 25 32 80 100 100 100 77 88 92 100 100 91 83 74 66 69 92 100 100 90 97 100 95 68 84 98 81 100 100 100 98 100 83 66
8 8 12 11 13 12 16 21 25 30 40 69 100 100 86 100 100 95 100 100 100 75 78 76 68 67 78 100 100 100 100 100 100 100 100 100 97 87 100 100 100 100 100 82
10 11 13 15 12 18 22 33 29 32 56 76 100 100 100 100 100 100 100 100 94 91 92 93 86 96 98 100 95 100 100 100 100 100 100 100 100 90 97 100 100 100 99 85
12 15 19 17 18 20 23 29 40 57 57 80 100 100 100 100 100 100 100 100 100 100 100 100 97 90 96 100 100 100 100 100 100 100 100 100 100 100 95 100 100 100 94 63
15 17 23 24 20 18 29 38 56 82 80 89 98 100 100 100 100 100 100 100 76 83 100 100 100 100 100 100 100 100 100 100 97 100 100 86 99 100 100 100 100 99 78 69
15 23 25 26 26 22 32 43 45 68 85 88 96 96 100 100 100 100 94 100 75 78 99 100 100 100 100 99 100 98 99 100 100 100 100 100 100 100 100 100 89 96 65 52
17 23 31 33 36 30 38 41 36 81 100 70 91 97 97 100 100 100 100 100 77 61 85 100 96 95 100 97 100 100 100 100 98 96 90 91 98 99 88 81 78 58 55 58
18 22 31 34 40 44 40 37 42 48 93 45 70 73 91 100 100 100 100 100 75 55 58 81 90 82 86 88 93 100 94 91 76 69 61 62 71 68 65 65 58 54 53 62
24 21 21 29 31 45 45 32 38 43 53 82 85 98 87 85 95 100 100 100 92 92 75 64 67 73 72 71 70 67 65 64 63 58 60 64 68 63 52 44 46 51 52 62
21 26 26 24 27 28 34 41 34 36 44 44 59 60 75 68 76 90 100 100 100 99 97 96 93 79 68 64 60 54 54 60 64 70 72 64 58 55 47 43 39 39 43 51
24 21 22 26 26 26 24 27 29 30 32 38 42 39 47 66 79 86 87 100 100 92 92 88 80 75 71 63 53 50 55 60 55 43 39 51 55 67 59 46 38 40 42 62
28 26 21 22 23 25 27 27 26 25 26 28 31 30 32 46 50 59 67 76 86 90 91 93 83 71 74 63 53 55 61 49 55 50 61 78 80 86 99 97 96 99 100 100
29 27 25 20 20 20 23 28 30 30 30 31 30 26 25 30 37 40 44 48 53 54 59 70 77 72 68 63 63 60 47 46 98 95 100 100 100 100 99 100 100 100 100 100
35 30 24 22 20 17 18 23 28 30 28 28 26 27 29 29 31 36 43 46 45 45 46 46 47 45 47 44 43 40 47 96 100 90 93 100 100 100 100 100 100 100 100 100
40 35 26 22 20 17 15 17 21 23 24 23 23 25 30 31 30 31 32 35 37 39 42 42 40 38 36 39 43 43 95 100 100 97 99 100 100 100 100 100 100 100 100 100

GFSCGP_250_rhum_120.txt.gz
RH
25 24 22 21 21 22 17 14 12 13 22 32 23 21 21 33 40 36 39 39 45 49 55 49 46 38 54 66 47 64 60 92 100 100 100 100 79 98 100 100 100 92 84 88
24 24 17 12 12 11 10 9 9 10 13 18 13 17 19 29 24 25 40 36 38 41 38 37 41 42 40 49 45 54 73 63 98 100 100 100 79 100 100 100 100 98 98 100
20 16 12 10 8 8 7 6 7 8 11 12 13 12 14 18 20 21 34 33 37 41 38 40 61 76 79 55 52 50 72 76 77 97 100 100 100 100 100 100 100 100 100 100
12 11 9 8 7 6 6 4 4 6 8 10 12 12 12 13 16 20 33 38 43 46 47 56 98 100 98 71 54 49 76 71 60 68 100 100 100 100 100 99 91 97 100 82
11 8 6 6 5 5 4 4 4 5 5 7 8 9 11 13 14 16 27 37 57 73 100 100 100 99 98 75 63 64 94 91 72 100 100 100 100 100 100 89 72 100 88 73
9 7 6 4 3 3 3 3 3 3 3 4 6 7 10 11 16 21 32 44 87 99 95 94 72 72 84 90 90 95 100 100 93 94 97 88 100 100 93 100 99 100 80 87
9 6 4 3 3 2 2 3 3 3 3 4 5 6 12 12 16 24 37 52 73 86 90 98 74 70 72 74 88 100 100 100 100 100 98 100 100 100 100 100 100 100 74 90
7 5 4 3 3 3 3 3 3 3 4 4 5 6 17 24 24 27 38 47 70 86 89 77 67 54 52 63 71 95 100 100 100 100 97 86 91 96 100 100 100 99 77 96
6 5 4 4 4 3 3 3 3 4 5 5 6 11 22 27 23 26 25 36 38 51 72 57 61 69 75 95 100 100 100 100 100 100 95 99 100 87 99 95 70 81 93 99
6 5 4 4 4 4 4 4 4 5 6 9 12 14 19 24 24 25 34 47 47 48 77 63 56 64 76 94 96 94 89 100 100 100 99 95 94 100 99 98 98 92 95 96
6 5 5 5 4 5 5 6 8 8 10 15 17 18 24 35 36 35 36 40 55 66 66 66 68 68 67 66 74 75 88 92 92 96 89 97 94 100 99 100 100 99 72 86
7 6 5 5 5 6 8 7 10 11 15 20 22 22 25 27 49 41 44 54 55 61 71 72 67 65 69 72 70 67 77 94 100 93 91 88 87 94 100 100 100 74 73 100
8 7 7 7 7 10 11 12 14 15 18 24 35 54 100 45 62 67 100 98 80 75 74 67 71 73 71 71 70 69 66 72 95 100 100 100 100 100 100 100 100 81 89 97
9 8 8 9 11 13 14 17 16 15 21 30 59 99 87 82 99 100 100 98 100 100 100 74 78 88 78 66 62 59 62 66 75 86 98 91 92 99 100 97 72 87 98 95
9 10 10 11 14 21 21 22 17 26 32 52 86 100 100 95 100 100 100 100 100 100 92 97 100 100 98 86 70 71 69 66 71 98 100 100 84 74 85 97 100 100 100 100
12 11 12 13 18 21 26 28 25 37 39 60 85 100 100 100 100 100 98 100 100 100 100 93 78 90 100 100 98 98 84 80 74 100 100 100 98 91 100 100 100 100 100 100
14 13 17 18 21 26 28 33 30 39 66 80 96 100 100 92 100 100 100 100 100 81 86 99 83 96 93 100 100 100 100 100 100 99 100 100 98 100 100 100 100 100 100 100
15 15 20 26 25 35 29 35 43 54 87 92 96 100 100 98 100 100 100 100 100 96 70 64 75 100 100 98 99 100 100 100 100 100 100 97 100 100 100 100 100 90 96 100
18 20 23 23 24 35 29 33 35 38 46 52 64 71 68 71 100 100 100 100 86 80 57 68 83 100 100 100 100 98 88 100 100 100 100 91 98 98 95 94 100 100 100 100
20 24 26 26 23 23 30 28 22 30 46 56 60 68 72 78 83 100 100 100 100 78 69 66 59 74 94 100 99 96 90 82 82 100 100 100 100 99 100 98 99 78 73 69
30 24 29 29 26 27 24 35 40 48 51 38 41 65 66 67 90 99 100 100 100 100 92 85 71 63 58 72 89 79 77 80 72 90 92 78 80 73 86 94 92 80 61 56
34 32 30 30 33 33 28 25 25 31 49 70 50 41 43 52 61 82 91 98 100 100 100 94 86 66 56 57 55 64 67 70 67 69 70 70 71 74 73 73 70 58 52 86
42 35 33 31 30 31 34 32 30 28 26 29 44 56 48 36 46 75 76 76 77 82 81 83 87 82 72 64 58 60 55 54 56 58 63 60 68 73 67 60 60 62 47 50
46 44 36 29 30 27 27 30 33 32 33 31 28 28 31 32 34 37 43 46 56 62 64 62 59 63 70 69 77 81 72 64 66 59 59 56 60 56 53 49 57 75 64 56
34 38 41 35 28 25 23 24 26 25 26 29 33 33 30 30 30 30 30 34 39 44 50 52 55 56 56 55 53 49 46 44 48 50 49 45 47 49 56 87 100 94 96 99
25 28 33 36 32 26 24 21 20 22 24 24 25 30 31 26 23 23 25 30 30 31 35 37 39 41 42 41 40 36 34 36 37 41 44 44 64 99 100 94 100 100 100 100

GFSCGP_250_rhum_123.txt.gz
RH
94 68 57 46 32 32 29 24 23 25 26 33 17 9 8 22 20 34 66 86 94 68 57 58 64 65 65 58 56 72 83 82 68 55 46 51 55 55 54 53 53 57 59 100
53 49 39 28 27 24 21 17 16 14 14 10 13 7 7 10 12 12 24 57 73 94 62 64 74 84 74 68 56 47 66 70 76 75 64 44 70 85 55 55 68 71 81 95
49 44 34 27 31 30 20 12 8 7 7 6 7 8 8 8 11 11 14 22 34 60 76 65 61 55 68 58 52 49 47 59 60 70 70 55 73 67 67 92 100 100 98 93
53 44 35 28 27 19 9 10 6 5 5 6 6 4 6 6 8 9 10 15 19 39 58 55 44 39 47 57 51 49 51 47 45 77 85 81 72 58 68 100 100 93 98 100
55 37 29 28 15 9 8 7 6 5 4 3 5 4 6 5 7 10 12 14 18 27 30 33 38 39 40 45 49 44 55 76 91 89 85 80 60 100 100 100 100 100 100 100
30 32 26 14 9 7 6 6 5 4 3 3 3 3 4 5 7 10 13 18 21 28 29 30 31 36 42 53 47 42 55 92 100 100 89 79 100 100 100 100 97 92 86 100
31 27 13 9 8 7 5 4 3 3 2 2 2 2 3 4 7 10 14 16 19 24 28 31 37 37 42 53 44 45 63 92 96 100 100 91 100 100 100 100 100 100 96 100
26 16 10 9 7 5 4 4 3 3 3 3 2 2 3 4 7 8 10 14 17 20 24 30 36 36 32 45 46 66 91 99 100 100 98 85 93 95 100 100 100 99 95 99
15 11 12 8 5 5 4 4 3 3 3 3 3 3 4 5 7 8 15 18 18 20 29 28 33 38 65 60 70 91 99 100 100 100 100 88 98 92 73 64 72 100 100 92
12 14 10 7 6 6 5 4 4 4 4 4 4 5 6 7 9 13 20 14 22 23 31 29 33 37 64 80 98 100 100 100 100 100 100 100 100 100 100 100 95 100 100 100
15 11 8 7 6 6 7 6 6 6 6 5 8 9 10 11 15 21 25 28 36 52 44 38 43 56 54 94 100 100 100 100 99 97 90 87 92 97 100 100 100 100 100 100
12 8 7 6 6 9 8 8 7 8 8 8 14 18 18 18 22 25 35 40 43 46 56 52 54 64 56 83 100 100 100 95 96 86 70 72 78 78 82 96 96 100 100 91
9 8 8 7 8 10 9 10 10 10 13 20 54 50 77 68 37 38 46 50 54 63 68 69 79 83 74 74 95 90 93 82 76 79 78 70 69 68 71 82 87 86 92 81
9 9 9 8 12 11 14 14 13 15 21 38 86 100 100 100 94 82 83 69 76 84 86 81 78 76 83 85 80 80 81 72 70 70 71 70 75 87 85 85 90 94 97 96
13 10 9 13 13 13 15 19 18 22 28 46 100 100 100 100 100 100 100 100 100 100 94 100 96 82 75 73 66 68 68 61 57 54 55 64 76 73 85 100 97 96 79 98
15 13 12 14 15 17 22 20 29 36 26 35 100 100 100 100 99 100 100 100 100 100 100 100 100 87 100 89 86 76 68 66 62 61 59 62 67 71 82 100 100 100 100 100
16 14 15 16 16 17 23 21 38 52 42 54 100 100 93 87 97 100 100 100 100 100 100 100 100 78 99 100 100 100 98 95 89 82 70 68 72 71 78 81 88 100 91 94
20 16 17 17 17 18 21 18 32 81 69 62 78 100 100 90 99 100 100 100 100 100 100 99 100 96 100 99 98 100 100 100 100 100 96 85 80 74 70 78 100 100 100 100
21 20 18 18 19 21 17 22 26 73 99 68 78 74 79 53 76 100 100 100 100 95 82 89 79 72 84 85 92 100 100 100 100 100 99 89 97 85 80 87 100 100 100 100
25 24 20 20 20 26 22 29 27 34 78 58 54 59 60 59 46 58 79 96 96 90 98 77 65 80 93 76 89 97 94 90 92 99 93 93 100 100 100 100 100 100 100 100
26 30 24 22 21 31 30 31 36 34 40 66 52 60 71 71 67 64 63 81 77 82 94 91 94 87 83 90 86 84 85 81 83 81 78 97 98 91 92 94 97 97 91 94
26 34 33 27 24 26 35 35 30 36 54 51 59 67 63 69 68 67 74 79 93 83 73 76 75 64 56 52 63 75 83 84 96 96 100 97 88 72 82 90 99 100 100 100
30 28 38 40 31 28 26 30 32 28 36 44 56 72 80 81 75 68 77 79 82 97 92 81 75 65 60 52 53 50 50 57 75 87 93 100 94 88 81 87 83 97 92 95
33 29 33 43 41 36 30 25 23 24 25 28 35 36 48 67 80 92 86 81 86 91 98 97 95 90 79 64 55 53 49 45 45 55 62 76 74 74 71 74 80 79 76 79
30 30 29 34 46 42 40 36 27 23 22 23 26 29 30 30 31 35 37 40 52 64 71 80 86 87 82 75 64 58 55 50 46 46 49 56 56 58 63 61 65 66 65 65
29 27 28 27 31 40 41 37 34 31 26 22 21 21 22 23 28 31 30 30 33 34 36 39 45 44 44 45 44 43 38 34 38 40 38 39 40 42 47 45 48 51 53 61

GFSCGP_250_rhum_129.txt.gz
RH
70 63 54 51 46 44 44 43 35 35 35 29 33 30 33 36 34 32 33 37 37 46 50 59 53 53 39 82 99 100 100 100 100 100 98 88 100 86 90 86 71 56 66 78
48 45 36 39 42 38 37 34 35 32 30 28 33 36 31 27 22 24 23 27 26 27 34 40 44 42 36 51 100 100 100 100 100 100 100 72 93 92 70 70 96 92 67 61
45 44 46 46 42 38 38 36 32 29 32 38 27 21 22 18 14 16 16 12 10 8 13 23 36 36 33 27 78 100 100 100 100 100 100 67 67 81 99 97 98 95 84 69
55 44 46 44 40 34 36 35 36 32 32 34 17 11 12 10 8 7 7 8 7 7 9 12 17 32 28 20 26 78 100 100 100 100 100 99 96 96 100 99 91 78 71 53
54 52 50 43 42 40 41 36 38 35 30 24 13 8 7 6 6 5 5 4 4 4 5 8 8 20 21 15 13 33 70 98 100 100 100 100 100 100 100 98 88 75 62 37
73 70 71 62 57 49 43 41 33 30 28 21 12 9 7 6 5 4 3 3 3 3 4 5 6 11 17 15 12 15 48 63 89 100 100 100 100 99 100 99 81 76 65 53
79 85 79 66 54 48 35 29 28 27 20 13 10 8 6 5 4 3 2 2 2 2 3 4 6 10 15 14 11 12 19 38 59 85 100 100 100 100 100 97 74 62 64 88
87 76 69 55 44 36 27 32 24 18 13 12 9 6 4 4 4 3 3 3 3 3 3 4 5 8 11 14 11 13 22 37 50 58 67 97 100 100 96 93 68 49 66 82
75 62 59 46 35 27 33 27 19 15 13 9 7 6 6 5 4 4 4 3 3 4 4 5 7 8 10 12 18 22 26 30 36 41 52 66 90 100 100 85 67 69 91 93
82 75 51 32 26 28 23 19 16 14 10 8 7 7 6 6 6 5 5 6 5 5 6 7 10 11 13 15 18 28 22 38 40 32 46 60 75 100 100 82 86 72 82 80
66 60 40 30 31 27 27 21 16 10 9 12 11 8 7 7 7 7 11 16 19 15 12 12 13 15 17 19 22 27 48 100 48 51 52 62 67 100 100 100 100 96 81 94
86 67 39 36 27 25 24 16 12 11 12 14 14 12 9 12 12 12 20 41 96 88 29 23 21 20 22 25 24 27 31 36 37 52 67 65 78 100 100 100 100 99 72 64
68 52 45 30 25 28 18 14 14 12 17 19 21 15 16 18 21 20 22 64 80 99 100 70 38 36 40 41 38 38 40 47 64 67 79 70 80 97 100 100 100 100 96 60
57 41 36 27 26 24 16 14 15 18 25 20 20 24 33 33 58 43 40 41 71 94 100 100 100 100 99 87 100 88 96 94 91 85 83 91 83 76 90 86 95 94 94 81
46 37 33 27 23 23 16 16 18 22 25 33 30 19 34 36 46 56 50 58 84 68 95 100 93 100 100 100 96 100 95 91 100 100 100 93 80 84 84 86 87 73 59 71
41 36 35 28 23 21 16 18 22 50 37 40 32 30 44 51 76 74 89 100 77 95 98 88 78 99 100 100 75 72 93 96 100 100 100 94 77 74 74 82 83 76 60 61
36 36 34 25 24 20 16 18 39 45 46 42 39 35 49 42 82 98 100 96 100 100 89 100 100 93 83 96 83 61 91 100 100 100 100 89 72 72 88 93 82 80 65 55
41 34 30 23 22 18 18 23 47 66 50 46 39 42 51 47 63 96 90 83 96 96 100 100 100 100 100 100 100 100 100 100 100 100 100 98 78 62 57 64 76 70 54 54
52 33 25 22 22 20 20 26 32 60 51 46 56 37 49 36 43 58 86 80 98 99 100 100 100 98 100 100 100 100 83 73 83 94 94 88 66 70 79 79 71 55 58 58
53 39 27 25 22 18 30 25 39 57 56 60 55 68 56 53 55 75 91 91 96 92 100 100 100 100 100 100 100 100 82 100 98 67 66 69 73 73 73 67 68 70 74 73
62 41 27 27 26 21 28 28 32 48 61 71 84 68 76 71 66 83 92 98 93 96 100 100 99 100 94 70 89 99 95 99 91 68 72 66 76 82 84 89 95 99 99 100
70 38 31 28 28 26 22 35 38 34 51 79 95 86 79 77 88 68 78 85 84 85 94 100 100 94 95 92 70 98 85 84 87 81 70 79 74 76 77 86 100 100 100 100
61 41 37 34 27 27 26 23 33 37 34 40 60 100 96 80 86 82 71 67 81 84 84 74 86 92 92 86 87 84 82 79 70 69 60 59 69 74 79 72 84 85 83 96
66 46 35 35 32 27 25 26 25 30 40 36 39 43 79 82 62 83 88 66 52 64 66 77 72 76 70 71 76 80 76 61 61 69 60 57 56 65 68 72 76 73 77 87
73 50 36 34 34 32 28 26 24 23 24 40 35 34 35 52 66 76 72 85 80 76 72 71 74 70 70 62 60 58 54 55 55 58 60 64 61 65 58 57 60 70 69 82
66 47 36 31 31 31 30 28 24 22 20 21 30 36 30 28 37 62 56 56 78 93 96 86 80 80 79 72 71 63 59 61 63 64 65 66 64 61 57 52 45 45 53 54

GFSCGP_250_rhum_132.txt.gz
RH
76 69 69 66 72 76 82 74 66 58 55 55 47 39 35 35 32 30 32 33 32 38 44 44 60 93 80 89 94 99 100 95 100 98 100 100 100 100 87 92 70 66 83 90
59 49 48 47 41 40 37 35 36 35 37 36 35 30 29 31 29 28 29 31 31 33 33 37 53 87 50 79 62 77 80 94 84 82 92 100 100 100 90 80 81 94 100 87
59 57 60 56 47 39 40 40 42 36 35 30 28 28 29 29 29 30 26 24 23 20 22 23 22 40 74 49 49 48 68 70 87 77 82 100 100 100 89 100 99 98 97 63
68 64 63 61 56 48 55 47 42 36 27 27 25 23 29 29 27 21 15 13 10 9 11 12 14 16 23 21 35 24 40 51 58 60 58 76 100 100 100 100 100 93 86 84
56 54 50 50 48 44 44 44 44 35 28 25 23 25 27 20 14 10 10 8 7 7 7 6 6 7 10 18 19 12 16 31 48 43 54 48 98 100 100 100 100 100 97 82
62 57 52 54 50 47 52 47 39 38 32 37 36 26 17 12 10 9 8 7 5 5 4 4 4 4 6 11 21 24 22 34 28 42 49 51 71 100 100 100 100 100 100 88
74 62 65 59 59 60 55 50 40 37 36 31 25 18 14 12 9 7 7 6 5 4 3 2 2 3 4 6 10 19 15 22 41 44 75 68 90 100 100 100 100 100 100 100
82 80 76 70 61 63 56 44 34 30 30 25 22 16 13 10 9 7 6 4 4 3 3 2 2 2 3 5 6 9 13 23 41 38 40 56 40 79 100 100 100 100 100 93
81 82 78 70 62 55 42 34 28 27 26 20 18 13 10 10 8 6 5 4 4 4 4 3 2 2 3 4 6 7 11 18 28 39 40 45 92 100 74 100 100 100 98 100
91 85 73 66 57 48 41 30 30 25 19 16 15 11 10 8 7 8 8 6 5 5 5 4 4 4 4 5 8 9 12 20 26 32 46 65 67 71 90 100 100 100 82 74
88 74 67 62 50 42 38 31 24 20 20 20 13 10 10 14 14 16 11 9 7 7 9 9 8 6 6 7 9 12 19 21 25 57 84 60 58 77 80 82 76 84 71 77
83 87 77 64 59 37 35 27 26 26 23 15 12 10 14 18 23 27 22 24 14 29 30 23 21 15 33 14 14 17 20 39 33 46 100 98 67 62 77 86 77 77 68 51
100 98 81 72 42 37 35 33 29 28 17 13 13 17 24 22 41 39 28 42 31 86 62 76 45 31 28 24 24 25 23 46 100 100 97 88 100 100 97 100 100 70 85 70
99 90 83 59 42 38 35 31 31 22 16 18 28 28 25 20 39 53 49 41 53 78 100 100 88 100 65 40 35 36 31 37 93 100 100 100 100 99 97 100 100 100 100 73
88 100 70 51 47 36 35 29 27 20 16 22 36 42 38 26 27 44 75 64 68 66 98 99 100 100 100 87 65 39 41 46 54 82 96 100 100 98 98 98 100 100 100 93
100 84 61 53 42 34 33 26 23 19 16 19 45 69 47 31 27 43 79 72 80 74 100 97 100 100 100 100 100 83 88 99 100 97 100 100 100 100 100 100 100 96 95 89
87 68 56 44 42 36 28 22 21 19 18 23 55 69 54 34 33 40 69 99 88 100 100 100 100 100 100 100 100 100 100 100 100 100 100 98 100 100 100 100 100 100 99 99
86 62 45 45 42 32 25 22 22 20 24 26 58 74 64 47 52 50 55 80 97 100 100 100 94 100 100 100 100 100 100 100 100 100 98 100 100 100 100 100 100 100 70 64
66 56 51 47 42 30 26 23 22 20 29 28 45 67 67 55 60 48 47 75 79 88 100 100 98 100 100 100 100 100 90 75 96 100 100 100 100 100 100 100 100 98 68 74
60 56 54 46 40 27 23 25 23 24 24 34 36 58 69 70 63 57 51 96 87 82 85 100 100 100 100 100 100 100 100 100 80 96 100 100 100 100 100 100 100 100 83 73
63 60 59 48 35 27 25 27 26 25 25 32 36 39 63 78 79 64 54 86 78 86 89 90 92 98 100 100 100 100 100 100 100 95 85 87 95 96 100 97 89 80 78 65
61 59 59 56 42 30 32 29 30 29 28 26 30 35 45 68 75 79 71 53 74 75 77 85 89 91 94 100 100 100 100 100 100 100 100 96 82 82 93 90 83 80 74 71
65 65 67 68 56 36 28 29 29 29 29 28 25 30 40 44 60 79 86 74 54 53 54 56 66 80 86 82 81 74 91 99 92 82 85 68 66 59 54 62 67 70 64 59
66 65 64 66 62 49 34 29 29 29 29 30 32 29 24 32 35 39 55 73 78 73 62 59 57 53 55 63 64 62 62 68 83 99 92 81 80 81 72 75 70 64 62 59
70 67 64 60 56 46 38 30 29 27 25 26 27 28 29 26 22 22 25 36 54 80 80 75 67 60 57 59 61 60 55 53 57 62 65 55 50 59 50 54 56 54 52 56
74 71 62 55 46 38 32 29 28 28 26 22 22 23 23 23 24 24 20 19 23 36 50 62 64 63 69 64 59 58 62 68 63 52 51 52 52 54 53 55 51 48 45 49

GFSCGP_250_rhum_138.txt.gz
RH
100 100 100 100 100 100 100 100 100 99 80 88 79 76 64 43 47 52 66 73 60 60 64 76 79 82 68 62 58 58 56 56 50 48 49 47 63 47 69 100 100 100 93 94
100 100 100 100 100 100 100 99 98 97 92 69 68 91 62 47 32 30 33 35 33 31 31 33 39 37 35 40 43 40 36 33 33 34 33 36 40 58 57 68 100 100 100 100
81 95 99 100 100 100 92 87 79 88 98 89 83 80 54 44 32 28 29 28 26 24 23 22 22 23 23 23 23 28 27 26 27 21 22 27 31 47 62 82 100 100 100 100
85 72 90 100 95 92 86 85 90 78 62 56 50 46 48 32 28 30 29 24 21 20 19 18 19 19 19 20 20 21 22 23 21 25 23 21 30 32 59 72 98 100 100 100
100 100 100 80 83 58 73 69 64 57 59 46 46 39 35 33 35 32 25 22 18 15 16 17 16 15 15 17 17 18 19 19 19 19 22 17 26 27 35 62 64 99 100 95
100 100 100 98 90 86 92 86 69 61 60 55 45 40 32 34 33 30 29 22 17 17 17 15 14 13 12 12 11 10 10 12 12 14 16 18 19 28 29 55 72 92 100 97
100 100 100 100 97 93 86 84 77 72 63 60 45 35 31 30 27 27 25 23 21 20 17 14 12 11 10 9 8 7 6 6 6 6 8 13 12 24 19 42 75 81 93 69
92 94 94 97 96 96 91 84 68 64 62 50 52 42 38 37 28 28 24 19 17 16 15 13 12 10 9 7 6 5 4 4 4 4 4 7 7 12 11 100 100 83 91 87
81 82 92 100 99 98 85 71 76 64 55 49 55 45 46 42 34 29 24 20 16 14 13 11 9 9 10 6 6 4 3 2 3 3 3 4 5 7 7 80 72 77 76 80
100 94 87 100 100 90 70 66 68 65 55 55 49 44 43 36 36 31 20 19 16 13 12 11 15 25 20 9 8 7 3 2 2 2 2 3 4 7 36 94 98 96 93 100
100 80 75 80 77 77 71 64 65 59 53 48 51 53 39 37 31 24 18 21 16 13 13 33 46 37 24 27 15 8 6 3 2 2 2 3 5 8 91 100 89 100 100 97
100 100 97 85 78 74 79 77 74 66 62 56 52 44 44 38 30 23 22 20 18 20 22 41 83 46 37 30 14 7 5 3 3 3 3 5 7 64 95 100 100 83 97 100
100 98 95 96 82 88 93 83 75 66 61 70 60 42 40 34 25 23 24 18 20 29 34 85 50 54 47 19 9 6 5 4 4 4 6 22 86 91 72 96 86 90 100 100
100 100 100 100 99 93 98 90 85 74 75 68 47 41 31 26 24 23 22 18 29 44 73 74 68 60 83 53 38 16 29 10 6 7 37 91 67 96 90 100 100 98 99 100
98 82 90 100 95 96 99 95 77 74 66 50 36 33 27 24 24 19 18 19 44 67 99 85 90 56 77 59 70 57 52 47 15 13 15 93 83 100 100 93 100 100 100 100
83 97 100 95 100 100 98 92 82 92 67 41 38 32 26 25 20 18 16 24 60 95 90 98 89 73 89 83 61 89 77 34 35 47 63 67 100 100 100 100 100 100 100 100
100 97 100 100 100 97 90 100 94 72 41 36 33 29 28 21 21 19 15 23 52 82 99 88 87 90 85 100 68 100 75 62 57 100 86 100 100 100 100 100 100 100 100 100
100 100 100 98 92 100 100 100 81 50 41 35 32 27 25 20 20 19 15 22 58 72 100 90 93 85 74 81 98 80 100 88 83 100 100 100 100 100 100 100 100 100 100 100
100 100 85 98 100 100 83 84 61 48 45 36 30 29 23 19 19 19 16 16 46 86 100 99 94 82 77 72 92 81 100 100 100 90 76 100 100 100 100 100 100 100 100 94
100 99 100 100 96 90 82 54 50 49 47 37 34 34 23 18 19 18 20 18 27 60 82 100 100 92 89 70 74 88 77 90 91 100 69 73 69 99 100 100 100 100 90 100
96 100 97 90 100 80 58 56 51 49 46 45 42 37 27 20 19 20 19 20 20 34 58 86 96 100 93 80 77 83 86 76 93 100 91 88 61 50 63 81 82 100 100 100
100 98 100 90 59 65 58 55 52 48 45 44 44 44 32 21 18 19 20 20 18 19 37 59 77 91 100 98 86 80 87 85 97 100 97 100 100 79 70 61 76 98 99 92
99 100 90 60 67 65 64 54 52 51 47 44 45 44 36 28 21 18 18 19 19 17 19 31 54 68 87 100 100 86 88 77 70 88 100 100 100 100 90 82 97 78 64 70
89 75 67 66 68 74 56 55 56 52 49 48 41 33 28 24 23 20 19 18 18 18 17 17 26 36 56 74 92 86 78 83 86 100 87 93 99 99 100 100 100 100 100 100
77 72 74 72 76 65 57 58 55 52 47 38 31 25 22 20 18 18 18 18 18 17 18 17 17 17 20 33 53 69 72 70 73 67 89 82 64 63 74 86 93 96 100 98
76 84 83 74 66 56 59 60 55 46 34 27 22 19 18 16 16 16 15 15 16 16 15 16 16 15 15 16 17 32 56 55 64 76 70 64 78 90 83 64 67 72 73 65

GFSCGP_250_rhum_141.txt.gz
RH
100 100 95 90 100 100 100 100 100 100 100 100 100 100 84 86 93 88 98 83 56 55 46 50 57 50 45 46 49 54 63 60 57 59 56 58 64 49 35 30 53 79 92 100
72 87 100 100 100 100 100 100 100 100 100 100 100 100 100 99 89 96 91 76 80 74 70 62 51 37 33 31 29 30 32 36 38 37 33 30 35 39 29 27 21 47 81 99
53 66 95 100 100 100 100 100 100 100 100 100 100 100 98 87 72 82 78 71 59 44 39 35 31 26 25 24 22 23 23 23 20 21 22 19 19 23 26 24 22 28 58 100
53 66 75 100 100 100 100 100 100 100 100 100 100 95 73 65 50 53 48 42 42 38 30 27 24 24 22 20 18 17 18 18 19 20 22 23 19 18 20 21 21 17 28 75
62 66 88 100 100 100 100 100 100 100 91 71 67 70 65 66 44 43 42 38 38 32 30 26 20 17 14 13 13 13 14 14 13 17 19 21 22 22 24 23 19 20 26 66
78 72 98 100 100 100 100 100 100 100 100 100 100 89 56 46 56 50 50 49 40 37 34 24 19 14 13 13 12 12 12 12 14 15 15 16 17 15 16 20 17 16 20 65
100 78 91 100 100 100 100 100 100 100 87 95 81 66 54 53 50 48 44 40 35 33 28 22 20 16 14 12 10 9 9 8 8 9 9 9 9 12 9 12 14 14 21 49
100 100 69 83 100 100 100 100 100 96 87 77 68 56 51 42 40 39 36 35 35 33 28 25 20 16 11 9 8 9 8 7 7 6 6 5 5 7 5 6 12 10 12 32
90 95 83 59 81 98 77 68 68 75 72 75 61 51 46 49 48 45 38 36 30 33 27 28 20 14 11 10 10 10 9 8 7 5 4 4 4 4 3 4 5 5 19 72
100 95 100 100 100 90 80 86 79 75 70 52 46 48 50 53 45 41 36 31 34 34 29 23 16 13 12 13 12 10 11 22 6 4 4 3 2 2 2 4 5 11 28 96
100 97 73 79 96 93 85 100 92 70 78 74 59 62 56 51 51 46 39 38 34 27 24 18 17 15 13 14 13 14 32 32 12 8 4 3 2 2 3 4 5 14 44 94
100 100 100 100 100 100 95 100 95 70 64 63 64 64 62 58 61 54 46 42 33 26 21 20 17 15 24 37 34 30 48 37 20 12 4 3 2 3 3 5 22 30 81 45
100 100 100 100 100 96 92 81 76 75 81 88 77 65 61 63 74 54 46 38 29 24 22 22 16 15 34 59 40 41 34 29 12 7 4 3 3 3 4 44 58 66 71 81
100 100 100 96 80 91 80 86 93 98 90 92 79 76 67 72 60 46 37 30 24 24 24 20 18 22 50 60 41 54 36 22 12 5 4 3 3 4 28 65 38 74 88 95
99 100 100 93 99 78 99 94 91 98 96 96 92 79 70 64 47 40 33 25 24 21 21 18 20 36 63 65 59 58 47 21 14 8 6 5 5 8 19 84 85 98 100 100
100 100 100 99 76 100 90 85 100 90 87 83 83 67 73 50 38 34 28 25 21 18 21 19 24 48 62 67 72 58 64 28 14 17 11 11 15 84 96 66 100 100 100 100
97 96 96 100 99 96 94 96 92 98 94 80 78 81 51 38 35 32 28 23 18 18 19 19 36 55 73 63 69 61 58 38 34 65 67 82 38 84 100 100 100 100 100 100
97 99 100 100 99 100 98 100 100 94 79 100 89 51 42 37 33 30 31 22 19 18 19 17 35 50 67 70 65 55 58 37 89 100 100 100 100 100 100 100 100 100 100 100
100 100 100 100 100 100 100 94 78 99 100 84 52 49 43 37 35 25 31 25 20 18 17 19 26 65 73 62 80 62 59 43 90 100 100 100 100 100 100 100 100 100 100 100
100 100 100 100 100 100 92 85 100 99 69 65 51 50 40 34 34 32 30 25 22 19 16 18 29 31 56 73 82 68 65 60 41 99 100 100 100 98 94 100 100 100 100 100
100 100 100 100 100 93 98 99 78 75 60 54 56 50 43 36 31 30 32 31 22 21 19 16 23 29 29 52 60 77 64 64 54 58 96 100 100 100 83 86 83 92 98 93
100 100 100 99 91 96 92 87 68 60 56 57 56 49 44 39 37 36 35 30 25 20 20 18 16 25 28 30 43 71 79 65 59 56 64 96 100 100 96 73 67 60 75 88
100 100 99 97 100 89 75 63 62 61 57 54 51 47 44 41 38 31 25 21 21 18 17 18 17 15 23 28 24 31 49 75 69 71 52 59 88 100 100 100 100 100 100 100
88 100 90 95 80 70 65 69 70 61 60 52 48 46 42 34 30 23 21 18 16 16 16 15 16 16 14 18 25 18 27 41 60 62 72 47 60 63 73 91 94 92 83 72
100 98 91 86 80 70 66 73 66 62 55 49 46 40 31 24 20 18 17 15 14 13 13 14 14 15 16 15 14 21 21 20 27 44 49 58 65 46 38 54 71 66 62 64
99 88 93 84 78 76 80 70 66 57 53 48 40 23 20 18 17 16 14 13 12 12 12 12 12 12 14 15 14 13 14 18 21 20 19 28 38 48 48 39 29 30 28 38